Simultaneous Nadir Overpasses (SNOs) Predictions

Prediction of SNOs between AQUA and METOP-A Satellite Orbit:

Table of predicted SNOs for the next 14.0 days since TLE Epoch: 5/27/2017
Index Date (AQUA) Time (AQUA) Lat,Lon (AQUA) SZA (AQUA ) Date (METOP-A) Time (METOP-A) Lat,Lon (METOP-A) SZA (METOP-A ) Distance(km) Time Diff (sec)
1 05/28/2017 20:08:57 -73.89, 51.85 127.71 05/28/2017 20:08:20 -73.91, 51.90 127.69 1.93 37
2 05/28/2017 20:58:26 73.94,-140.63 52.34 05/28/2017 20:58:59 73.96,-140.65 52.35 1.74 33
3 05/31/2017 15:43:12 -73.91, 118.26 128.10 05/31/2017 15:42:41 -73.91, 118.31 128.10 1.76 31
4 05/31/2017 16:32:41 73.96, -74.23 51.95 05/31/2017 16:33:20 73.96, -74.23 51.95 0.17 39
5 06/03/2017 11:17:26 -73.93,-175.36 128.44 06/03/2017 11:17:01 -73.91,-175.27 128.46 3.18 25
6 06/03/2017 12:06:55 73.99, -7.85 51.62 06/03/2017 12:07:40 73.96, -7.82 51.59 3.28 45
7 06/06/2017 06:02:01 73.19, 85.01 50.48 06/06/2017 06:00:56 73.13, 82.02 50.53 96.63 65
8 06/06/2017 06:51:40 -73.91,-108.87 128.77 06/06/2017 06:51:22 -73.91,-108.87 128.76 0.35 18
9 06/06/2017 07:41:09 73.97, 58.62 51.30 06/06/2017 07:42:01 73.96, 58.58 51.28 2.09 52
10 06/09/2017 01:36:20 73.45, 150.93 50.49 06/09/2017 01:35:12 73.38, 148.97 50.50 62.56 68
11 06/09/2017 02:25:54 -73.90, -42.40 129.04 06/09/2017 02:25:43 -73.91, -42.47 129.02 2.59 11
12 06/09/2017 03:15:23 73.97, 125.08 51.04 06/09/2017 03:16:22 73.95, 124.97 51.02 3.48 59




NCC Satellite Simultaneous Nadir Overpasses (SNOs) Prediction Service
